FLOCK 2K-39 (42866 NORAD) Tracking and Keplerian Element Data

This shows tracking and keplerian element data for the satellite.

Feedback or suggestion? Click here.




ElementValue
Catalog42866
NameFLOCK 2K-39
Epoch Orbit15216
Epoch Day91.89112316
Epoch Year2020
RAAN324.1038
Inclination96.9045
Eccentricity0.0007515
Argument of Perigee254.6037
Mean Anonmoly105.4381
Mean Motion15.40836588
Decay Rate3.127E-05
L11 42866U 17042AT 20091.89112316 .00003127 00000-0 78090-4 0 9994
L22 42866 96.9045 324.1038 0007515 254.6037 105.4381 15.40836588152162

Live tracking and technical data element details for FLOCK 2K-39 (NORAD 42866). FLOCK 2K-39 can be tracked NOW for your location showing map with azimuth and elevation plus other details from your city location.

Track the satellite on the map from your city or location and see movement details for azimuth, elevation, latitude, longitude, range, height, and movement on the map or in text.







IsCatalogInMostPopularTable: catalog: 42866, numindb: 367
Update: records affected: 1



GetName: 42866 FLOCK 2K-39

Hit Count: updated at: Fri, 03 Apr 2020 08:36:45 GMT